Location: Kaarina
(60.4167°N, 22.4167°E)
Time: 17:13:30
(UTC+03:00)

SL-16 R/B - Pass Details

Date: 24 August 2019
Orbit: 842 x 848 km, 71.0° (Epoch: 16 September)

Event Time Altitude Azimuth Distance (km) Brightness Sun altitude
Rises 22:03:18 0° 277° (W) 3,405 6.5 -7.5°
Reaches altitude 10° 22:06:03 10° 289° (WNW) 2,471 6.0 -7.7°
Maximum altitude 22:11:00 30° 349° (N) 1,482 4.1 -8.2°
Drops below altitude 10° 22:15:58 10° 50° (NE) 2,476 4.6 -8.7°
Sets 22:18:45 0° 62° (ENE) 3,413 5.2 -8.9°
